Home > Time Zones > World Clock > Weather > Russia > Perm > Past weeks

Flag for Russia Weather past 2 weeks in Perm, Russia

Now
54 °F

Sprinkles. Mostly cloudy.


Feels Like: 52 °F
Forecast: 42 / 58 °F
Wind: 6 mph from Northwest

Location: Perm'/Bolshoe Savino

Current Time: Aug 31, 2014 at 5:02:58 PM

Latest Report: Aug 31, 2014 at 4:30 PM


Visibility: N/A

Pressure: 29.83 "Hg

Humidity: 94%

Dew point: 52 °F

Location of PermLocation

Historic Weather in Perm — Graph

°F

Perm temperature yesterday

Maximum temperature yesterday: 64 °F (at 4:30 PM)
Minimum temperature yesterday: 50 °F (at 11:30 PM)
Average temperature yesterday: 58 °F

Past Weeks' High & Low Weather Summary

 TemperatureHumidityPressure
High79 °F (Aug 16, 4:00 PM)100% (Aug 17, 2:30 AM)30.18 "Hg (Aug 17, 2:30 AM)
Low37 °F (Aug 26, 7:30 AM)39% (Aug 22, 5:00 PM)29.30 "Hg (Aug 30, 1:00 AM)
Average61 °F83%29.84 "Hg
* Reported Aug 16 4:00 PM — Aug 31 4:00 PM, Perm, Weather by CustomWeather, © 2014

Note: Actual official high and low records may vary slightly from our data, if they occured in-between our weather recording intervals... More about our weather records

Advertising

Perm weather history for previous 24 hours

 ConditionsComfort  
Time TempWeatherWind HumidityBarometerVisibility
4:00 PM
Aug 31
57 °FPartly sunny.6 mph77%29.83 "HgN/A
3:30 PM57 °FMostly cloudy.6 mph82%29.83 "HgN/A
3:00 PM55 °FMostly cloudy.6 mph82%29.83 "HgN/A
2:30 PM55 °FPartly sunny.8 mph77%29.80 "HgN/A
2:00 PM57 °FSprinkles. Partly sunny.8 mph77%29.80 "HgN/A
1:30 PM57 °FPartly sunny.8 mph77%29.80 "HgN/A
1:00 PM55 °FSprinkles. Partly sunny.8 mph82%29.80 "HgN/A
12:30 PM54 °FSprinkles. Mostly cloudy.8 mph88%29.77 "HgN/A
12:00 PM54 °FMostly cloudy.8 mph88%29.77 "HgN/A
11:30 AM52 °FSprinkles. Cloudy.10 mph94%29.77 "HgN/A
11:00 AM52 °FSprinkles. Mostly cloudy.8 mph94%29.77 "HgN/A
10:30 AM54 °FSprinkles. Partly sunny.8 mph88%29.74 "HgN/A
10:00 AM54 °FPartly sunny.10 mph88%29.74 "HgN/A
9:30 AM52 °FPartly sunny.10 mph88%29.74 "HgN/A
9:00 AM52 °FPartly sunny.8 mph88%29.71 "HgN/A
8:30 AM52 °FPartly sunny.10 mph88%29.71 "HgN/A
8:00 AM50 °FBroken clouds.10 mph94%29.71 "HgN/A
7:30 AM50 °FPartly sunny.10 mph94%29.71 "HgN/A
7:00 AM50 °FMostly cloudy.10 mph94%29.71 "HgN/A
6:30 AM50 °FPartly cloudy.10 mph94%29.71 "HgN/A
6:00 AM50 °FClear.10 mph88%29.68 "Hg10 mi
5:30 AM50 °FPartly cloudy.10 mph88%29.68 "HgN/A
5:00 AM50 °FPassing clouds.10 mph88%29.68 "HgN/A
4:30 AM52 °FPassing clouds.8 mph88%29.68 "HgN/A
4:00 AM52 °FPassing clouds.10 mph82%29.68 "HgN/A
3:30 AM50 °FClear.10 mph88%29.65 "Hg10 mi
2:30 AM50 °FClear.8 mph88%29.65 "Hg10 mi
2:00 AM52 °FClear.8 mph88%29.65 "Hg10 mi
1:30 AM52 °FClear.10 mph88%29.65 "Hg10 mi
1:00 AM52 °FClear.10 mph88%29.65 "Hg10 mi
12:30 AM52 °FClear.10 mph88%29.65 "Hg10 mi
12:00 AM52 °FPassing clouds.10 mph88%29.65 "HgN/A
11:30 PM
Aug 30
50 °FPartly cloudy.8 mph88%29.65 "HgN/A
11:00 PM52 °FPartly cloudy.8 mph82%29.65 "HgN/A
10:30 PM52 °FPartly cloudy.10 mph88%29.65 "HgN/A
10:00 PM54 °FPartly cloudy.8 mph82%29.65 "HgN/A
9:30 PM55 °FPartly cloudy.8 mph72%29.65 "HgN/A
9:00 PM59 °FBroken clouds.10 mph63%29.65 "HgN/A
8:30 PM61 °FBroken clouds.13 mph59%29.62 "HgN/A
8:00 PM61 °FBroken clouds.15 mph59%29.62 "HgN/A
7:30 PM63 °FBroken clouds.17 mph56%29.62 "HgN/A
7:00 PM63 °FBroken clouds.22 mph52%29.62 "HgN/A
6:30 PM63 °FBroken clouds.22 mph52%29.62 "HgN/A
6:00 PM63 °FBroken clouds.15 mph59%29.62 "HgN/A
5:30 PM64 °FBroken clouds.17 mph56%29.59 "HgN/A
5:00 PM64 °FBroken clouds.22 mph56%29.59 "HgN/A
Weather by CustomWeather, © 2014

See weather overviewHow to use our weather pages